{"data":{"norad_id":55590,"intl_designator":"2023-020X","name":"STARLINK-5762","alt_names":[],"object_type":"PAYLOAD","status":"ACTIVE","operator":null,"country":"US","launch_date":"2023-02-12","launch_site_code":"AFETR","launch_vehicle":null,"mission":null,"orbit_class":"UNKNOWN","rcs_meters":null,"size_class":null,"mass_kg":null,"dimensions":null,"purposes":["comms"],"wikipedia_slug":null,"has_3d_model":false,"image_url":null,"decayed_at":null,"tle_current":{"epoch":"2026-05-25T03:02:04.042752Z","epoch_age_seconds":64918,"freshness":"FRESH","line1":"1 55590U 23020X   26145.12643568 -.00000199  00000+0  23174-5 0  9995","line2":"2 55590  43.0052 293.4596 0001700 266.8217  93.2440 15.27575538180603","mean_motion":15.27575538,"eccentricity":0.00017,"inclination_deg":43.0052,"raan_deg":293.4596,"arg_perigee_deg":266.8217,"mean_anomaly_deg":93.244,"bstar":2.3174e-6,"rev_number":18060,"period_min":94.267024063854,"perigee_km":481.8960529977,"apogee_km":484.22886081304,"semimajor_km":6861.1994569054,"source":"CELESTRAK","updated_at":"2026-05-25T13:38:17.838844Z"}}}